Location: Newark
(49.4900°N, 20.6656°E)
Time: 10:52:21
(UTC+00:00)

STARLINK-1759 - Pass Details

Date: 24 September 2020
Orbit: 548 x 550 km, 53.0° (Epoch: 25 October)

Event Time Altitude Azimuth Distance (km) Brightness Sun altitude
Exits shadow 03:11:42 14° 294° (WNW) 1,539 5.4 -12.9°
Maximum altitude 03:15:06 69° 18° (NNE) 574 3.8 -12.4°
Drops below altitude 10° 03:19:08 10° 102° (ESE) 1,779 7.3 -11.8°
Sets 03:21:21 0° 104° (ESE) 2,665 8.4 -11.4°
